| time (UTC) | temp F | wind direction | speed MPH | gust MPH | rain 1hr in | rain 24hr in | rain mn in | humidity % | barometer mb |
| 20260505054504 | 60 | 271 | 3.0 | 10.0 | 0.05 | 0.06 | 0.02 | 69 | 1004.0 |
| 20260505053001 | 58 | 314 | 0.0 | 2.0 | 0.06 | 0.06 | 0.02 | 84 | 1003.9 |
| 20260505051557 | 58 | 285 | 1.0 | 3.0 | 0.06 | 0.06 | 0.02 | 81 | 1003.7 |
| 20260505041601 | 73 | 314 | 1.0 | 13.0 | 0.00 | 0.00 | 0.00 | 64 | 1002.5 |
| 20260505040049 | 71 | 306 | 1.0 | 6.0 | 0.00 | 0.00 | 0.00 | 68 | 1002.4 |
| 20260505034549 | 73 | 309 | 2.0 | 7.0 | 0.00 | 0.00 | 0.00 | 66 | 1001.8 |
| 20260505033050 | 72 | 295 | 4.0 | 8.0 | 0.00 | 0.00 | 0.00 | 65 | 1001.8 |
| 20260505031547 | 72 | 319 | 2.0 | 3.0 | 0.00 | 0.00 | 0.00 | 64 | 1001.7 |
| 20260505030057 | 71 | 314 | 0.0 | 1.0 | 0.00 | 0.00 | 0.00 | 63 | 1001.5 |
| 20260505024547 | 73 | 330 | 0.0 | 2.0 | 0.00 | 0.00 | 0.00 | 60 | 1001.4 |
| 20260505023046 | 73 | 269 | 1.0 | 2.0 | 0.00 | 0.00 | 0.00 | 58 | 1001.2 |
| 20260505021552 | 73 | 278 | 0.0 | 1.0 | 0.00 | 0.00 | 0.00 | 58 | 1000.9 |
| 20260505020052 | 74 | 281 | 0.0 | 3.0 | 0.00 | 0.00 | 0.00 | 56 | 1000.7 |
| 20260505014544 | 75 | 287 | 1.0 | 4.0 | 0.00 | 0.00 | 0.00 | 54 | 1000.5 |
| 20260505013043 | 76 | 313 | 2.0 | 3.0 | 0.00 | 0.00 | 0.00 | 52 | 1000.3 |
| 20260505011542 | 76 | 304 | 0.0 | 1.0 | 0.00 | 0.00 | 0.00 | 51 | 1000.2 |
| 20260505004545 | 78 | 310 | 0.0 | 1.0 | 0.00 | 0.00 | 0.00 | 47 | 999.9 |
| 20260505003048 | 79 | 275 | 0.0 | 1.0 | 0.00 | 0.00 | 0.00 | 45 | 999.8 |
| 20260505001541 | 80 | 283 | 0.0 | 1.0 | 0.00 | 0.00 | 0.00 | 45 | 999.8 |
| 20260505000045 | 80 | 315 | 0.0 | 2.0 | 0.00 | 0.00 | 0.00 | 45 | 999.8 |
| 20260504234538 | 80 | 304 | 0.0 | 2.0 | 0.00 | 0.00 | 0.00 | 45 | 999.8 |
| 20260504233045 | 81 | 298 | 0.0 | 3.0 | 0.00 | 0.00 | 0.00 | 44 | 999.8 |
| 20260504231536 | 81 | 281 | 0.0 | 6.0 | 0.00 | 0.00 | 0.00 | 42 | 999.8 |
| 20260504230034 | 82 | 92 | 1.0 | 4.0 | 0.00 | 0.00 | 0.00 | 41 | 999.8 |
| 20260504224536 | 82 | 316 | 1.0 | 6.0 | 0.00 | 0.00 | 0.00 | 41 | 999.8 |
| 20260504223033 | 81 | 281 | 1.0 | 3.0 | 0.00 | 0.00 | 0.00 | 44 | 999.9 |
| 20260504221528 | 81 | 321 | 1.0 | 9.0 | 0.00 | 0.00 | 0.00 | 45 | 1000.0 |
| 20260504220028 | 81 | 284 | 3.0 | 9.0 | 0.00 | 0.00 | 0.00 | 46 | 999.9 |
| 20260504214537 | 81 | 290 | 4.0 | 13.0 | 0.00 | 0.00 | 0.00 | 47 | 1000.1 |
| 20260504213028 | 81 | 291 | 2.0 | 13.0 | 0.00 | 0.00 | 0.00 | 46 | 1000.1 |
| 20260504211524 | 82 | 276 | 6.0 | 13.0 | 0.00 | 0.00 | 0.00 | 44 | 1000.2 |
| 20260504210023 | 83 | 308 | 3.0 | 6.0 | 0.00 | 0.00 | 0.00 | 38 | 1000.2 |
| 20260504204521 | 83 | 317 | 2.0 | 4.0 | 0.00 | 0.00 | 0.00 | 38 | 1000.3 |
| 20260504203021 | 83 | 291 | 7.0 | 12.0 | 0.00 | 0.00 | 0.00 | 38 | 1000.5 |
| 20260504201519 | 83 | 315 | 3.0 | 13.0 | 0.00 | 0.00 | 0.00 | 40 | 1000.5 |
| 20260504200020 | 83 | 309 | 2.0 | 12.0 | 0.00 | 0.00 | 0.00 | 39 | 1000.6 |
| 20260504194515 | 82 | 294 | 5.0 | 11.0 | 0.00 | 0.00 | 0.00 | 39 | 1000.6 |
| 20260504193013 | 82 | 323 | 4.0 | 11.0 | 0.00 | 0.00 | 0.00 | 41 | 1000.8 |
| 20260504191513 | 81 | 311 | 3.0 | 15.0 | 0.00 | 0.00 | 0.00 | 44 | 1000.8 |
| 20260504190011 | 81 | 333 | 5.0 | 14.0 | 0.00 | 0.00 | 0.00 | 44 | 1000.9 |
| 20260504184507 | 81 | 286 | 1.0 | 10.0 | 0.00 | 0.00 | 0.00 | 44 | 1001.0 |
| 20260504183007 | 81 | 292 | 1.0 | 5.0 | 0.00 | 0.00 | 0.00 | 44 | 1001.2 |
| 20260504181503 | 80 | 326 | 2.0 | 11.0 | 0.00 | 0.00 | 0.00 | 43 | 1001.3 |
| 20260504180001 | 80 | 289 | 3.0 | 8.0 | 0.00 | 0.00 | 0.00 | 45 | 1001.5 |
| 20260504174559 | 79 | 300 | 3.0 | 9.0 | 0.00 | 0.00 | 0.00 | 45 | 1001.6 |
| 20260504173056 | 78 | 282 | 4.0 | 11.0 | 0.00 | 0.00 | 0.00 | 46 | 1001.7 |
| 20260504171554 | 78 | 309 | 1.0 | 7.0 | 0.00 | 0.00 | 0.00 | 47 | 1001.8 |
| 20260504081554 | 64 | 271 | 3.0 | 6.0 | 0.00 | 0.00 | 0.00 | 56 | 1003.8 |